Location: C�mpuri de-Sus
(45.9500°N, 22.5500°E)
Time: 00:48:41
(UTC+00:00)

Cosmos 839 Rocket - Pass Details

Date: 01 June 2022
Orbit: 968 x 2085 km, 65.9° (Epoch: 06 July)

Event Time Altitude Azimuth Distance (km) Brightness Sun altitude
Rises 00:26:39 0° 306° (NW) 3,803 7.2 -16.9°
Reaches altitude 10° 00:31:10 10° 277° (W) 3,001 6.3 -16.5°
Maximum altitude 00:33:35 12° 256° (WSW) 2,949 6.1 -16.3°
Enters shadow 00:34:08 12° 252° (WSW) 2,980 6.1 -16.2°
